Torch Lake Weather Center

Moon Phase Calendar



Torch Lake Water Level
Online Cameras

 


      

Current Conditions in Bellaire
4/12/2021 1:54:11 AM

50°F
Feels Like 49
Mist
Humidity
93%
Pressure
29.56"
Wind
3.3 mph (NE)
Dew Point
48°F
UV Index
0/10 (Low)
Visibility
5 mi

Hourly Forecast

Date & Time Mon, Apr 12
1:00 AM
Mon, Apr 12
2:00 AM
Mon, Apr 12
3:00 AM
Mon, Apr 12
4:00 AM
Mon, Apr 12
5:00 AM
Mon, Apr 12
6:00 AM
Mon, Apr 12
7:00 AM
Mon, Apr 12
8:00 AM
Mon, Apr 12
9:00 AM
Mon, Apr 12
10:00 AM
Mon, Apr 12
11:00 AM
Mon, Apr 12
12:00 PM
Mon, Apr 12
1:00 PM
Mon, Apr 12
2:00 PM
Mon, Apr 12
3:00 PM
Mon, Apr 12
4:00 PM
Mon, Apr 12
5:00 PM
Mon, Apr 12
6:00 PM
Mon, Apr 12
7:00 PM
Mon, Apr 12
8:00 PM
Mon, Apr 12
9:00 PM
Mon, Apr 12
10:00 PM
Mon, Apr 12
11:00 PM
Tue, Apr 13
12:00 AM
Tue, Apr 13
1:00 AM
Tue, Apr 13
2:00 AM
Tue, Apr 13
3:00 AM
Tue, Apr 13
4:00 AM
Tue, Apr 13
5:00 AM
Tue, Apr 13
6:00 AM
Tue, Apr 13
7:00 AM
Tue, Apr 13
8:00 AM
Tue, Apr 13
9:00 AM
Tue, Apr 13
10:00 AM
Tue, Apr 13
11:00 AM
Tue, Apr 13
12:00 PM
Tue, Apr 13
1:00 PM
Tue, Apr 13
2:00 PM
Tue, Apr 13
3:00 PM
Tue, Apr 13
4:00 PM
Tue, Apr 13
5:00 PM
Tue, Apr 13
6:00 PM
Tue, Apr 13
7:00 PM
Tue, Apr 13
8:00 PM
Tue, Apr 13
9:00 PM
Tue, Apr 13
10:00 PM
Tue, Apr 13
11:00 PM
Wed, Apr 14
12:00 AM
Condition
Clouds

Clouds

Clouds

Clouds

Clouds

Clouds

Clouds

Clouds

Clouds

Clouds

Clouds

Clouds

Clouds

Clouds

Clouds

Rain

Rain

Rain

Rain

Rain

Rain

Clouds

Clouds

Clouds

Clouds

Clouds

Clear

Clear

Clear

Clear

Clear

Clear

Clouds

Clouds

Clouds

Clouds

Clouds

Clouds

Clouds

Clouds

Clouds

Clouds

Clouds

Clouds

Clouds

Clouds

Clouds

Rain
Temperature 50°F48°F47°F47°F47°F47°F47°F47°F49°F49°F50°F52°F51°F51°F50°F49°F46°F45°F46°F46°F45°F45°F44°F44°F43°F42°F41°F40°F40°F39°F39°F40°F43°F46°F47°F49°F49°F50°F49°F47°F46°F46°F46°F44°F43°F42°F41°F40°F
Feels Like 49°F47°F47°F47°F47°F47°F47°F47°F49°F49°F49°F51°F50°F50°F49°F49°F43°F42°F44°F42°F41°F41°F39°F39°F38°F36°F35°F35°F34°F34°F34°F36°F38°F40°F42°F43°F44°F44°F42°F40°F40°F41°F41°F40°F39°F39°F38°F34°F
Cloudiness 90%63%95%97%98%98%99%99%99%97%97%96%97%97%100%100%100%100%100%100%100%95%87%86%83%73%7%7%6%5%4%5%18%18%17%19%24%30%99%92%82%71%63%59%97%97%98%98%
Visibility 6 mi6 mi6 mi6 mi6 mi6 mi6 mi6 mi6 mi6 mi6 mi6 mi6 mi6 mi6 mi6 mi5 mi6 mi6 mi6 mi6 mi6 mi6 mi6 mi6 mi6 mi6 mi6 mi6 mi6 mi6 mi6 mi6 mi6 mi6 mi6 mi6 mi6 mi6 mi6 mi6 mi6 mi6 mi6 mi6 mi6 mi6 mi6 mi
Precipitation 0%0%0%0%0%0%0%0%0%0%0%0%0%0%12%48%67%82%85%85%67%62%62%55%55%51%0%0%0%0%0%0%0%0%0%0%0%0%0%0%0%0%0%0%0%0%7%39%
Humidity 93%94%95%95%94%93%93%93%89%89%89%87%88%88%88%92%95%94%93%94%93%91%93%92%92%90%90%91%93%93%92%88%77%69%63%58%57%57%61%64%62%58%60%70%74%76%79%87%
Dew Point 48°F46°F46°F46°F45°F45°F45°F45°F45°F46°F47°F48°F48°F47°F47°F46°F45°F43°F44°F44°F43°F42°F41°F41°F41°F39°F38°F38°F38°F37°F36°F36°F36°F36°F35°F34°F34°F34°F35°F35°F34°F32°F33°F34°F35°F35°F35°F36°F
Pressure 29.56"29.56"29.56"29.56"29.59"29.59"29.59"29.62"29.65"29.65"29.65"29.65"29.65"29.65"29.68"29.68"29.71"29.74"29.77"29.77"29.8"29.83"29.83"29.83"29.85"29.85"29.88"29.88"29.88"29.91"29.91"29.91"29.91"29.91"29.91"29.91"29.91"29.94"29.94"29.94"29.97"29.97"29.97"29.97"30"30"30"30"
Wind Speed 3.9 mph3.3 mph2 mph1.6 mph2.3 mph1.8 mph1 mph1.7 mph2.4 mph2.7 mph4.2 mph5.6 mph5.7 mph5.2 mph2.7 mph2.3 mph6.3 mph5.6 mph3.9 mph6.8 mph8.1 mph7.2 mph7.8 mph8.8 mph8.4 mph10.5 mph10 mph8.1 mph7.6 mph8 mph7.1 mph6.2 mph9.8 mph11.5 mph11.3 mph12.2 mph11.8 mph13.1 mph16.8 mph16.8 mph13.7 mph10.4 mph8.4 mph6.2 mph6.5 mph5.6 mph5.4 mph8.3 mph
Wind
Direction
46°
NE
52°
NE
46°
NE
41°
NE
39°
NE
53°
NE
351°
N
334°
NNW
15°
NNE
66°
ENE
75°
ENE
81°
E
92°
E
102°
ESE
97°
E
315°
NW
282°
WNW
271°
W
239°
WSW
229°
SW
233°
SW
231°
SW
217°
SW
219°
SW
217°
SW
220°
SW
214°
SW
206°
SSW
184°
S
181°
S
175°
S
154°
SSE
181°
S
214°
SW
225°
SW
236°
SW
252°
WSW
252°
WSW
254°
WSW
253°
WSW
250°
WSW
251°
WSW
256°
WSW
251°
WSW
249°
WSW
253°
WSW
254°
WSW
252°
WSW

Daily Forecast

Date High Low Precip. Humidity
Today
Apr 12

Rain
52 °F
44 °F
85%
88%
Tuesday
Apr 13

Clouds
50 °F
39 °F
55%
57%
Wednesday
Apr 14

Snow
41 °F
37 °F
87%
69%
Thursday
Apr 15

Rain
45 °F
39 °F
81%
84%
Friday
Apr 16

Clouds
50 °F
38 °F
0%
65%
Saturday
Apr 17

Clouds
48 °F
36 °F
21%
71%
Sunday
Apr 18

Clouds
48 °F
39 °F
6%
60%
Monday
Apr 19

Clouds
48 °F
39 °F
25%
62%
Tuesday
Apr 20

Rain
56 °F
39 °F
71%
47%
Wednesday
Apr 21

Rain
40 °F
35 °F
79%
70%
Thursday
Apr 22

Rain
47 °F
34 °F
64%
60%
Friday
Apr 23

Snow
33 °F
24 °F
100%
72%
Saturday
Apr 24

Clouds
45 °F
23 °F
0%
41%
Sunday
Apr 25

Snow
47 °F
33 °F
100%
41%
Monday
Apr 26

Snow
39 °F
35 °F
100%
98%
Tuesday
Apr 27

Rain
39 °F
36 °F
100%
94%

Temperature 8-14 Day Outlook



Precipitation 8-14 Day Outlook




Quick Links
Torch Lake News
Torch Lake Photos
Torch Lake Videos




About Us
Contact Us
Site Map
Search Site
Advertise With Us
   
Torch.LakesOnline.com
THE TORCH LAKE WEBSITE

Copyright 2021, Lakes Online
Privacy    |    Legal